Terminal Aerodrome Forecast
Issued by NWS Aberdeen, SD

Home | Current Version | Previous Version | Text Only | Print | Product List | Glossary On
Versions: 1 2 3 4 5 6 7 8 9 10 11 12 13 14 15 16 17 18 19 20 21 22 23 24 25 26 27 28 29 30 31 32 33 34 35 36 37 38 39 40 41 42 43 44 45 46 47 48 49
000
FTAK31 PAFA 191136
TAFABR
TAF
PABR 191136Z 1912/2012 19020G28KT 1SM -SN BR OVC015
      TEMPO 1912/1915 1/2SM SN OVC007
     FM191500 13017KT 1SM -SN BR OVC010
     FM192000 11015KT 3SM -SN BR SCT007 OVC015
     FM200000 09015KT 6SM -SHSN BKN025=

USA.gov is the U.S. government's official web portal to all federal, state and local government web resources and services.